This is the latest recevied weather packets stored in our database for station/object W8AN. If no packets are shown the sender has not sent any weather packets the latest 10 day(s).
| Time | Temp. | Humidity | Pressure | Rain* | Wind** | Luminosity | Snow |
|---|---|---|---|---|---|---|---|
| 1777304319 | 17.78° C | 63% | 4272.3 hPa | 0 mm | - | 494 W/m² | - |
| 1777304016 | 17.78° C | 64% | 4272.1 hPa | 0 mm | - | 431 W/m² | - |
| 1777303713 | 17.78° C | 65% | 4272.2 hPa | 0 mm | - | 521 W/m² | - |
| 1777303410 | 17.78° C | 65% | 4272.1 hPa | 0 mm | - | 483 W/m² | - |
| 1777303108 | 17.22° C | 64% | 4271.8 hPa | 0 mm | - | 615 W/m² | - |
| 1777302807 | 17.22° C | 64% | 4271.8 hPa | 0 mm | - | 609 W/m² | - |
| 1777302503 | 17.22° C | 65% | 4271.8 hPa | 0 mm | - | 642 W/m² | - |
| 1777302201 | 17.22° C | 66% | 4272.1 hPa | 0 mm | - | 660 W/m² | - |
| 1777301898 | 16.67° C | 67% | 4272.3 hPa | 0 mm | - | 635 W/m² | - |
| 1777301595 | 17.22° C | 67% | 4272.6 hPa | 0 mm | - | 592 W/m² | - |
| 1777301293 | 16.67° C | 68% | 4272.6 hPa | 0 mm | - | 577 W/m² | - |
| 1777300990 | 16.11° C | 68% | 4272.5 hPa | 0 mm | - | 605 W/m² | - |
| 1777300687 | 15.56° C | 68% | 4272.7 hPa | 0 mm | - | 616 W/m² | - |
| 1777300379 | 16.11° C | 67% | 4272.8 hPa | 0 mm | - | 594 W/m² | - |
| 1777300075 | 15.56° C | 69% | 4272.9 hPa | 0 mm | - | 586 W/m² | - |
| 1777299772 | 15° C | 70% | 4272.9 hPa | 0 mm | - | 565 W/m² | - |
| 1777299470 | 15° C | 70% | 4273.1 hPa | 0 mm | - | 543 W/m² | - |
| 1777299167 | 14.44° C | 70% | 4273.1 hPa | 0 mm | - | 508 W/m² | - |
| 1777298865 | 14.44° C | 71% | 4273.4 hPa | 0 mm | - | 471 W/m² | - |
| 1777298561 | 14.44° C | 70% | 4273.5 hPa | 0 mm | - | 438 W/m² | - |
| 1777298257 | 13.89° C | 70% | 4273.3 hPa | 0 mm | - | 445 W/m² | - |
| 1777297953 | 13.89° C | 71% | 4273.1 hPa | 0 mm | - | 433 W/m² | - |
| 1777297650 | 13.89° C | 71% | 4273 hPa | 0 mm | - | 424 W/m² | - |
| 1777297347 | 13.89° C | 72% | 4273.2 hPa | 0 mm | - | 396 W/m² | - |
| 1777297044 | 13.89° C | 73% | 4273.3 hPa | 0 mm | - | 387 W/m² | - |
* Rain latest hour (hover to see other rain measurements)
** Current wind speed in m/s (hover to see current wind gust speed)